����������;��������(kVARh)
2017-12-25 00:00;0
2017-12-25 00:15;0,05
2017-12-25 00:30;0
2017-12-25 00:45;0,1
2017-12-25 01:00;0,05
2017-12-25 01:15;1,55
2017-12-25 01:30;1,9
2017-12-25 01:45;0,45
2017-12-25 02:00;1,55
2017-12-25 02:15;2,9
2017-12-25 02:30;2,6
2017-12-25 02:45;4
2017-12-25 03:00;4,4
2017-12-25 03:15;3,9
2017-12-25 03:30;3,9
2017-12-25 03:45;4,45
2017-12-25 04:00;4,9
2017-12-25 04:15;3,55
2017-12-25 04:30;4,2
2017-12-25 04:45;3,35
2017-12-25 05:00;2,05
2017-12-25 05:15;2,15
2017-12-25 05:30;2,55
2017-12-25 05:45;3,45
2017-12-25 06:00;4,45
2017-12-25 06:15;3,95
2017-12-25 06:30;3,45
2017-12-25 06:45;3,45
2017-12-25 07:00;3,3
2017-12-25 07:15;3,15
2017-12-25 07:30;2,7
2017-12-25 07:45;2,2
2017-12-25 08:00;2,9
2017-12-25 08:15;1,1
2017-12-25 08:30;0,35
2017-12-25 08:45;0,05
2017-12-25 09:00;0,3
2017-12-25 09:15;0,25
2017-12-25 09:30;0,05
2017-12-25 09:45;0
2017-12-25 10:00;0
2017-12-25 10:15;0,05
2017-12-25 10:30;0,5
2017-12-25 10:45;0,35
2017-12-25 11:00;0,2
2017-12-25 11:15;0
2017-12-25 11:30;0,35
2017-12-25 11:45;0,15
2017-12-25 12:00;0,6
2017-12-25 12:15;0,2
2017-12-25 12:30;0,2
2017-12-25 12:45;0,6
2017-12-25 13:00;1,7
2017-12-25 13:15;2,4
2017-12-25 13:30;4,45
2017-12-25 13:45;5,35
2017-12-25 14:00;5,3
2017-12-25 14:15;0,7
2017-12-25 14:30;1,55
2017-12-25 14:45;3,15
2017-12-25 15:00;2,3
2017-12-25 15:15;4
2017-12-25 15:30;5,6
2017-12-25 15:45;2,6
2017-12-25 16:00;2,6
2017-12-25 16:15;2,6
2017-12-25 16:30;2,15
2017-12-25 16:45;2,75
2017-12-25 17:00;2,95
2017-12-25 17:15;1,05
2017-12-25 17:30;0
2017-12-25 17:45;0
2017-12-25 18:00;0
2017-12-25 18:15;0
2017-12-25 18:30;0,5
2017-12-25 18:45;1,2
2017-12-25 19:00;1,25
2017-12-25 19:15;1,4
2017-12-25 19:30;1,85
2017-12-25 19:45;0,75
2017-12-25 20:00;0,25
2017-12-25 20:15;0,1
2017-12-25 20:30;0
2017-12-25 20:45;0
2017-12-25 21:00;0
2017-12-25 21:15;0,1
2017-12-25 21:30;0,2
2017-12-25 21:45;0
2017-12-25 22:00;0,35
2017-12-25 22:15;0,7
2017-12-25 22:30;1,2
2017-12-25 22:45;1,25
2017-12-25 23:00;1,15
2017-12-25 23:15;0,75
2017-12-25 23:30;0,15
2017-12-25 23:45;0,6
2017-12-26 00:00;1,05
2017-12-26 00:15;1,8
2017-12-26 00:30;0
2017-12-26 00:45;0
2017-12-26 01:00;0
2017-12-26 01:15;0
2017-12-26 01:30;0,05
2017-12-26 01:45;0,9
2017-12-26 02:00;3,75
2017-12-26 02:15;3,55
2017-12-26 02:30;2,95
2017-12-26 02:45;3,1
2017-12-26 03:00;3,5
2017-12-26 03:15;4,15
2017-12-26 03:30;4,55
2017-12-26 03:45;4,3
2017-12-26 04:00;3,7
2017-12-26 04:15;3,2
2017-12-26 04:30;2,6
2017-12-26 04:45;3,4
2017-12-26 05:00;2,1
2017-12-26 05:15;2,2
2017-12-26 05:30;3,35
2017-12-26 05:45;3,1
2017-12-26 06:00;4,05
2017-12-26 06:15;4,7
2017-12-26 06:30;4,4
2017-12-26 06:45;3,9
2017-12-26 07:00;3,2
2017-12-26 07:15;2,45
2017-12-26 07:30;2,45
2017-12-26 07:45;3,55
2017-12-26 08:00;1,85
2017-12-26 08:15;2,45
2017-12-26 08:30;1,85
2017-12-26 08:45;1,35
2017-12-26 09:00;1,65
2017-12-26 09:15;1,4
2017-12-26 09:30;1,55
2017-12-26 09:45;0,55
2017-12-26 10:00;0,1
2017-12-26 10:15;0,35
2017-12-26 10:30;0,2
2017-12-26 10:45;0,15
2017-12-26 11:00;0,55
2017-12-26 11:15;0,1
2017-12-26 11:30;0,2
2017-12-26 11:45;0,1
2017-12-26 12:00;0,3
2017-12-26 12:15;0,45
2017-12-26 12:30;2,9
2017-12-26 12:45;2,15
2017-12-26 13:00;3,25
2017-12-26 13:15;1,6
2017-12-26 13:30;1,7
2017-12-26 13:45;1,55
2017-12-26 14:00;3,9
2017-12-26 14:15;1,45
2017-12-26 14:30;1,95
2017-12-26 14:45;1,45
2017-12-26 15:00;2,8
2017-12-26 15:15;2,1
2017-12-26 15:30;1,6
2017-12-26 15:45;1,5
2017-12-26 16:00;0,6
2017-12-26 16:15;0,35
2017-12-26 16:30;0,1
2017-12-26 16:45;0
2017-12-26 17:00;0,25
2017-12-26 17:15;0,4
2017-12-26 17:30;0,1
2017-12-26 17:45;0
2017-12-26 18:00;0,1
2017-12-26 18:15;0,1
2017-12-26 18:30;0
2017-12-26 18:45;0
2017-12-26 19:00;0
2017-12-26 19:15;0
2017-12-26 19:30;0
2017-12-26 19:45;0
2017-12-26 20:00;0
2017-12-26 20:15;0
2017-12-26 20:30;0
2017-12-26 20:45;0
2017-12-26 21:00;0,05
2017-12-26 21:15;0
2017-12-26 21:30;0,05
2017-12-26 21:45;0
2017-12-26 22:00;0
2017-12-26 22:15;0
2017-12-26 22:30;0,05
2017-12-26 22:45;0
2017-12-26 23:00;0
2017-12-26 23:15;0,1
2017-12-26 23:30;0,25
2017-12-26 23:45;0,35
2017-12-27 00:00;0
2017-12-27 00:15;0
2017-12-27 00:30;0
2017-12-27 00:45;0
2017-12-27 01:00;0
2017-12-27 01:15;0
2017-12-27 01:30;0
2017-12-27 01:45;0,05
2017-12-27 02:00;0,35
2017-12-27 02:15;0,6
2017-12-27 02:30;0,35
2017-12-27 02:45;0,05
2017-12-27 03:00;0,3
2017-12-27 03:15;0,55
2017-12-27 03:30;0,25
2017-12-27 03:45;0,55
2017-12-27 04:00;0,9
2017-12-27 04:15;1,15
2017-12-27 04:30;0,6
2017-12-27 04:45;0,55
2017-12-27 05:00;0,5
2017-12-27 05:15;0,5
2017-12-27 05:30;0,75
2017-12-27 05:45;0,15
2017-12-27 06:00;0,35
2017-12-27 06:15;0,6
2017-12-27 06:30;0,55
2017-12-27 06:45;0,1
2017-12-27 07:00;0
2017-12-27 07:15;0
2017-12-27 07:30;0
2017-12-27 07:45;0
2017-12-27 08:00;0,1
2017-12-27 08:15;0,55
2017-12-27 08:30;1,35
2017-12-27 08:45;0,45
2017-12-27 09:00;0,55
2017-12-27 09:15;0,4
2017-12-27 09:30;0
2017-12-27 09:45;0
2017-12-27 10:00;0
2017-12-27 10:15;0
2017-12-27 10:30;0
2017-12-27 10:45;0
2017-12-27 11:00;0
2017-12-27 11:15;0
2017-12-27 11:30;0
2017-12-27 11:45;0,05
2017-12-27 12:00;1,15
2017-12-27 12:15;1,9
2017-12-27 12:30;1,65
2017-12-27 12:45;1,25
2017-12-27 13:00;2,1
2017-12-27 13:15;2,35
2017-12-27 13:30;3,3
2017-12-27 13:45;2,35
2017-12-27 14:00;2,7
2017-12-27 14:15;3,4
2017-12-27 14:30;3,5
2017-12-27 14:45;2
2017-12-27 15:00;1,85
2017-12-27 15:15;2,35
2017-12-27 15:30;2,3
2017-12-27 15:45;2,1
2017-12-27 16:00;3,85
2017-12-27 16:15;2,25
2017-12-27 16:30;2,85
2017-12-27 16:45;3,05
2017-12-27 17:00;1,9
2017-12-27 17:15;1,1
2017-12-27 17:30;0,45
2017-12-27 17:45;0
2017-12-27 18:00;0
2017-12-27 18:15;0
2017-12-27 18:30;0,15
2017-12-27 18:45;0
2017-12-27 19:00;0
2017-12-27 19:15;0,1
2017-12-27 19:30;0
2017-12-27 19:45;0
2017-12-27 20:00;0
2017-12-27 20:15;0
2017-12-27 20:30;0
2017-12-27 20:45;0
2017-12-27 21:00;0
2017-12-27 21:15;0,1
2017-12-27 21:30;0,05
2017-12-27 21:45;0,05
2017-12-27 22:00;0,5
2017-12-27 22:15;0,8
2017-12-27 22:30;2,3
2017-12-27 22:45;2,55
2017-12-27 23:00;0,8
2017-12-27 23:15;0
2017-12-27 23:30;0
2017-12-27 23:45;0
2017-12-28 00:00;0
2017-12-28 00:15;0,15
2017-12-28 00:30;0,2
2017-12-28 00:45;1,3
2017-12-28 01:00;2,3
2017-12-28 01:15;2,35
2017-12-28 01:30;2,1
2017-12-28 01:45;2,75
2017-12-28 02:00;5,3
2017-12-28 02:15;5,9
2017-12-28 02:30;3,35
2017-12-28 02:45;4,35
2017-12-28 03:00;5,3
2017-12-28 03:15;6,2
2017-12-28 03:30;5,7
2017-12-28 03:45;7,25
2017-12-28 04:00;7
2017-12-28 04:15;5,65
2017-12-28 04:30;3,6
2017-12-28 04:45;3,65
2017-12-28 05:00;2,25
2017-12-28 05:15;1,4
2017-12-28 05:30;2,35
2017-12-28 05:45;2,75
2017-12-28 06:00;2,55
2017-12-28 06:15;1,95
2017-12-28 06:30;1,7
2017-12-28 06:45;0,65
2017-12-28 07:00;0,1
2017-12-28 07:15;0
2017-12-28 07:30;0,3
2017-12-28 07:45;0,25
2017-12-28 08:00;0,8
2017-12-28 08:15;3
2017-12-28 08:30;1,9
2017-12-28 08:45;6,8
2017-12-28 09:00;4,2
2017-12-28 09:15;4,75
2017-12-28 09:30;3,85
2017-12-28 09:45;3,15
2017-12-28 10:00;2,2
2017-12-28 10:15;2,3
2017-12-28 10:30;2,4
2017-12-28 10:45;1,55
2017-12-28 11:00;1,2
2017-12-28 11:15;1,2
2017-12-28 11:30;0,9
2017-12-28 11:45;1,2
2017-12-28 12:00;1,8
2017-12-28 12:15;1,6
2017-12-28 12:30;0,6
2017-12-28 12:45;0,6
2017-12-28 13:00;1,45
2017-12-28 13:15;0,6
2017-12-28 13:30;1,9
2017-12-28 13:45;0,35
2017-12-28 14:00;0,8
2017-12-28 14:15;1,7
2017-12-28 14:30;1,45
2017-12-28 14:45;3,55
2017-12-28 15:00;2,55
2017-12-28 15:15;1,35
2017-12-28 15:30;1,05
2017-12-28 15:45;1,35
2017-12-28 16:00;0
2017-12-28 16:15;0,15
2017-12-28 16:30;0,1
2017-12-28 16:45;0
2017-12-28 17:00;0
2017-12-28 17:15;0,05
2017-12-28 17:30;0
2017-12-28 17:45;0
2017-12-28 18:00;0
2017-12-28 18:15;0
2017-12-28 18:30;0
2017-12-28 18:45;0
2017-12-28 19:00;0
2017-12-28 19:15;0
2017-12-28 19:30;0
2017-12-28 19:45;0
2017-12-28 20:00;0
2017-12-28 20:15;0
2017-12-28 20:30;0
2017-12-28 20:45;0
2017-12-28 21:00;0
2017-12-28 21:15;0,1
2017-12-28 21:30;0
2017-12-28 21:45;0
2017-12-28 22:00;0
2017-12-28 22:15;0
2017-12-28 22:30;0
2017-12-28 22:45;0,7
2017-12-28 23:00;0,3
2017-12-28 23:15;0,45
2017-12-28 23:30;0,75
2017-12-28 23:45;1,7
2017-12-29 00:00;2,55
2017-12-29 00:15;2,45
2017-12-29 00:30;0
2017-12-29 00:45;0
2017-12-29 01:00;0
2017-12-29 01:15;0,5
2017-12-29 01:30;0,6
2017-12-29 01:45;1
2017-12-29 02:00;2,05
2017-12-29 02:15;2,75
2017-12-29 02:30;3,2
2017-12-29 02:45;1,95
2017-12-29 03:00;1,4
2017-12-29 03:15;1,75
2017-12-29 03:30;2,9
2017-12-29 03:45;2,55
2017-12-29 04:00;2,25
2017-12-29 04:15;3,2
2017-12-29 04:30;1,6
2017-12-29 04:45;2,15
2017-12-29 05:00;1,05
2017-12-29 05:15;1,5
2017-12-29 05:30;0,95
2017-12-29 05:45;1,9
2017-12-29 06:00;1,2
2017-12-29 06:15;1,35
2017-12-29 06:30;1,6
2017-12-29 06:45;1,15
2017-12-29 07:00;0,25
2017-12-29 07:15;0
2017-12-29 07:30;0
2017-12-29 07:45;0,1
2017-12-29 08:00;0,9
2017-12-29 08:15;1,6
2017-12-29 08:30;2,35
2017-12-29 08:45;0,65
2017-12-29 09:00;0
2017-12-29 09:15;0,1
2017-12-29 09:30;0
2017-12-29 09:45;0
2017-12-29 10:00;0,1
2017-12-29 10:15;2,5
2017-12-29 10:30;3,1
2017-12-29 10:45;2,7
2017-12-29 11:00;4
2017-12-29 11:15;3,55
2017-12-29 11:30;4,2
2017-12-29 11:45;4,45
2017-12-29 12:00;3,95
2017-12-29 12:15;4,65
2017-12-29 12:30;3,6
2017-12-29 12:45;3,95
2017-12-29 13:00;4,85
2017-12-29 13:15;3,9
2017-12-29 13:30;2,8
2017-12-29 13:45;2,7
2017-12-29 14:00;1,3
2017-12-29 14:15;0,9
2017-12-29 14:30;0,9
2017-12-29 14:45;1,75
2017-12-29 15:00;1,35
2017-12-29 15:15;0,75
2017-12-29 15:30;0,95
2017-12-29 15:45;2,35
2017-12-29 16:00;0,8
2017-12-29 16:15;0,85
2017-12-29 16:30;1,3
2017-12-29 16:45;1,45
2017-12-29 17:00;1,65
2017-12-29 17:15;0,4
2017-12-29 17:30;0
2017-12-29 17:45;0
2017-12-29 18:00;0,05
2017-12-29 18:15;0
2017-12-29 18:30;0
2017-12-29 18:45;0
2017-12-29 19:00;0
2017-12-29 19:15;0
2017-12-29 19:30;0
2017-12-29 19:45;0
2017-12-29 20:00;0
2017-12-29 20:15;0
2017-12-29 20:30;0
2017-12-29 20:45;0
2017-12-29 21:00;0
2017-12-29 21:15;0
2017-12-29 21:30;0
2017-12-29 21:45;0,15
2017-12-29 22:00;0,2
2017-12-29 22:15;0,1
2017-12-29 22:30;1
2017-12-29 22:45;1,3
2017-12-29 23:00;1,2
2017-12-29 23:15;0,7
2017-12-29 23:30;0,2
2017-12-29 23:45;0,1
2017-12-30 00:00;0
2017-12-30 00:15;0
2017-12-30 00:30;0
2017-12-30 00:45;0
2017-12-30 01:00;0
2017-12-30 01:15;0
2017-12-30 01:30;0
2017-12-30 01:45;0,1
2017-12-30 02:00;0
2017-12-30 02:15;0,55
2017-12-30 02:30;0,75
2017-12-30 02:45;0,55
2017-12-30 03:00;1,15
2017-12-30 03:15;0,7
2017-12-30 03:30;0,55
2017-12-30 03:45;1,75
2017-12-30 04:00;0,6
2017-12-30 04:15;0,8
2017-12-30 04:30;1,9
2017-12-30 04:45;2,2
2017-12-30 05:00;0,9
2017-12-30 05:15;0,4
2017-12-30 05:30;0,7
2017-12-30 05:45;0,5
2017-12-30 06:00;1,55
2017-12-30 06:15;1,4
2017-12-30 06:30;0,95
2017-12-30 06:45;1,5
2017-12-30 07:00;0,05
2017-12-30 07:15;0
2017-12-30 07:30;0
2017-12-30 07:45;0,1
2017-12-30 08:00;0
2017-12-30 08:15;0
2017-12-30 08:30;0
2017-12-30 08:45;0
2017-12-30 09:00;0
2017-12-30 09:15;0,45
2017-12-30 09:30;0
2017-12-30 09:45;0
2017-12-30 10:00;0
2017-12-30 10:15;0
2017-12-30 10:30;0
2017-12-30 10:45;0
2017-12-30 11:00;0
2017-12-30 11:15;0
2017-12-30 11:30;0
2017-12-30 11:45;0
2017-12-30 12:00;0
2017-12-30 12:15;0
2017-12-30 12:30;0
2017-12-30 12:45;0
2017-12-30 13:00;0
2017-12-30 13:15;0
2017-12-30 13:30;0
2017-12-30 13:45;0
2017-12-30 14:00;0
2017-12-30 14:15;0,1
2017-12-30 14:30;0
2017-12-30 14:45;0
2017-12-30 15:00;1,4
2017-12-30 15:15;1,65
2017-12-30 15:30;0,85
2017-12-30 15:45;1,05
2017-12-30 16:00;0,65
2017-12-30 16:15;2,75
2017-12-30 16:30;2,35
2017-12-30 16:45;2,45
2017-12-30 17:00;3,1
2017-12-30 17:15;0,95
2017-12-30 17:30;1,35
2017-12-30 17:45;0,25
2017-12-30 18:00;0,1
2017-12-30 18:15;0,15
2017-12-30 18:30;0
2017-12-30 18:45;0
2017-12-30 19:00;0
2017-12-30 19:15;0
2017-12-30 19:30;0
2017-12-30 19:45;0
2017-12-30 20:00;0
2017-12-30 20:15;0
2017-12-30 20:30;0
2017-12-30 20:45;0
2017-12-30 21:00;0
2017-12-30 21:15;0,05
2017-12-30 21:30;0,15
2017-12-30 21:45;0
2017-12-30 22:00;0,5
2017-12-30 22:15;0,4
2017-12-30 22:30;0,55
2017-12-30 22:45;0,6
2017-12-30 23:00;0
2017-12-30 23:15;0
2017-12-30 23:30;0
2017-12-30 23:45;0
2017-12-31 00:00;0,25
2017-12-31 00:15;0,8
2017-12-31 00:30;0,25
2017-12-31 00:45;0
2017-12-31 01:00;0
2017-12-31 01:15;0
2017-12-31 01:30;0
2017-12-31 01:45;0,35
2017-12-31 02:00;0,75
2017-12-31 02:15;1,05
2017-12-31 02:30;0,7
2017-12-31 02:45;2,5
2017-12-31 03:00;1,7
2017-12-31 03:15;1,35
2017-12-31 03:30;3,3
2017-12-31 03:45;2,2
2017-12-31 04:00;2,65
2017-12-31 04:15;1,55
2017-12-31 04:30;1,55
2017-12-31 04:45;1,25
2017-12-31 05:00;1,1
2017-12-31 05:15;1,05
2017-12-31 05:30;0,85
2017-12-31 05:45;1,4
2017-12-31 06:00;2,05
2017-12-31 06:15;0,8
2017-12-31 06:30;1,7
2017-12-31 06:45;1,25
2017-12-31 07:00;0,95
2017-12-31 07:15;0,05
2017-12-31 07:30;0,35
2017-12-31 07:45;0,45
2017-12-31 08:00;0
2017-12-31 08:15;0
2017-12-31 08:30;0
2017-12-31 08:45;0
2017-12-31 09:00;0
2017-12-31 09:15;0,45
2017-12-31 09:30;0
2017-12-31 09:45;0
2017-12-31 10:00;0
2017-12-31 10:15;0
2017-12-31 10:30;0
2017-12-31 10:45;0
2017-12-31 11:00;0,2
2017-12-31 11:15;0,4
2017-12-31 11:30;0,2
2017-12-31 11:45;0,2
2017-12-31 12:00;0,3
2017-12-31 12:15;0,35
2017-12-31 12:30;0,25
2017-12-31 12:45;0,05
2017-12-31 13:00;0,25
2017-12-31 13:15;0,35
2017-12-31 13:30;0,35
2017-12-31 13:45;0,05
2017-12-31 14:00;0,6
2017-12-31 14:15;0,8
2017-12-31 14:30;0,25
2017-12-31 14:45;0,55
2017-12-31 15:00;0,4
2017-12-31 15:15;0,4
2017-12-31 15:30;0,3
2017-12-31 15:45;0,1
2017-12-31 16:00;0,1
2017-12-31 16:15;0,05
2017-12-31 16:30;0
2017-12-31 16:45;0
2017-12-31 17:00;0
2017-12-31 17:15;0
2017-12-31 17:30;0
2017-12-31 17:45;0
2017-12-31 18:00;0
2017-12-31 18:15;0
2017-12-31 18:30;0
2017-12-31 18:45;0
2017-12-31 19:00;0
2017-12-31 19:15;0
2017-12-31 19:30;0,05
2017-12-31 19:45;0
2017-12-31 20:00;0,15
2017-12-31 20:15;0
2017-12-31 20:30;0,15
2017-12-31 20:45;1,8
2017-12-31 21:00;2
2017-12-31 21:15;3
2017-12-31 21:30;0,2
2017-12-31 21:45;0,55
2017-12-31 22:00;1,75
2017-12-31 22:15;2,15
2017-12-31 22:30;0,3
2017-12-31 22:45;0,05
2017-12-31 23:00;0,1
2017-12-31 23:15;0
2017-12-31 23:30;0
2017-12-31 23:45;0,5

